GW4340 Weather Reports


Display with metric or nautical units.
time (UTC)temp
F
wind
direction
speed
MPH
gust
MPH
rain 1hr
in
rain 24hr
in
rain mn
in
humidity
%
barometer
mb
20260507130223 72 0.0 0.0 0.00 0.00 0.00 58 1014.1
20260507125322 72 0.0 0.0 0.00 0.00 0.00 58 1014.0
20260507124422 72 0.0 0.0 0.00 0.00 0.00 57 1014.1
20260507123522 72 0.0 0.0 0.00 0.00 0.00 56 1014.1
20260507122622 72 0.0 0.0 0.00 0.00 0.00 55 1014.1
20260507121722 73 0.0 0.0 0.00 0.00 0.00 54 1014.0
20260507120822 73 0.0 0.0 0.00 0.00 0.00 52 1013.8
20260507115922 75 0.0 0.0 0.00 0.00 0.00 51 1013.6
20260507115022 76 0.0 0.0 0.00 0.00 0.00 48 1013.4
20260507114138 76 0.0 0.0 0.00 0.00 0.00 49 1013.5
20260507113223 77 0.0 0.0 0.00 0.00 0.00 48 1013.2
20260507112323 78 0.0 0.0 0.00 0.00 0.00 44 1013.1
20260507111423 78 0.0 0.0 0.00 0.00 0.00 47 1013.1
20260507110522 75 0.0 0.0 0.00 0.00 0.00 48 1013.6
20260507105622 74 0.0 0.0 0.00 0.00 0.00 51 1013.8
20260507104738 74 0.0 0.0 0.00 0.00 0.00 49 1013.8
20260507103823 75 0.0 0.0 0.00 0.00 0.00 50 1013.7
20260507102922 75 0.0 0.0 0.00 0.00 0.00 48 1013.6
20260507102022 75 0.0 0.0 0.00 0.00 0.00 50 1013.6
20260507101122 76 0.0 0.0 0.00 0.00 0.00 48 1013.5
20260507100223 76 0.0 0.0 0.00 0.00 0.00 48 1013.5
20260507095337 76 0.0 0.0 0.00 0.00 0.00 49 1013.5
20260507094422 77 0.0 0.0 0.00 0.00 0.00 44 1013.2
20260507093522 77 0.0 0.0 0.00 0.00 0.00 44 1013.2
20260507092622 77 0.0 0.0 0.00 0.00 0.00 43 1013.3
20260507091724 77 0.0 0.0 0.00 0.00 0.00 43 1013.3
20260507090822 77 0.0 0.0 0.00 0.00 0.00 42 1013.4
20260507085922 77 0.0 0.0 0.00 0.00 0.00 41 1013.4
20260507085022 76 0.0 0.0 0.00 0.00 0.00 42 1013.4
20260507084122 77 0.0 0.0 0.00 0.00 0.00 42 1013.4
20260507083223 76 0.0 0.0 0.00 0.00 0.00 43 1013.5
20260507082322 76 0.0 0.0 0.00 0.00 0.00 44 1013.4
20260507081423 76 0.0 0.0 0.00 0.00 0.00 42 1013.4
20260507080522 77 0.0 0.0 0.00 0.00 0.00 41 1013.4
20260507075622 77 0.0 0.0 0.00 0.00 0.00 42 1013.4
20260507074737 78 0.0 0.0 0.00 0.00 0.00 41 1013.2
20260507073838 79 0.0 0.0 0.00 0.00 0.00 40 1013.0
20260507072922 81 0.0 0.0 0.00 0.00 0.00 37 1012.7
20260507072022 79 0.0 0.0 0.00 0.00 0.00 39 1012.9
20260507071138 79 0.0 0.0 0.00 0.00 0.00 35 1012.8
20260507070222 85 0.0 0.0 0.00 0.00 0.00 38 1012.1
20260507065322 83 0.0 0.0 0.00 0.00 0.00 40 1012.5
20260507064422 85 0.0 0.0 0.00 0.00 0.00 39 1012.0
20260507063537 86 0.0 0.0 0.00 0.00 0.00 39 1012.0
20260507062622 86 0.0 0.0 0.00 0.00 0.00 39 1012.0
20260507061722 82 0.0 0.0 0.00 0.00 0.00 44 1012.6
20260507060822 83 0.0 0.0 0.00 0.00 0.00 41 1012.4
20260507055922 85 0.0 0.0 0.00 0.00 0.00 41 1012.1
20260507055038 80 0.0 0.0 0.00 0.00 0.00 47 1012.7
20260507054138 82 0.0 0.0 0.00 0.00 0.00 49 1012.5
20260507053237 72 0.0 0.0 0.00 0.00 0.00 70 1013.7
20260507052338 70 0.0 0.0 0.00 0.00 0.00 70 1014.0
20260507051423 65 0.0 0.0 0.00 0.00 0.00 77 1014.7
20260507050522 67 0.0 0.0 0.00 0.00 0.00 70 1014.6
20260507045622 65 0.0 0.0 0.00 0.00 0.00 76 1014.8
20260507044722 60 0.0 0.0 0.00 0.00 0.00 83 1015.4
20260507043822 58 0.0 0.0 0.00 0.00 0.00 99 1015.6
20260507042922 56 0.0 0.0 0.00 0.00 0.00 10 1015.8
20260507042022 55 0.0 0.0 0.00 0.00 0.00 10 1016.0
20260507041138 54 0.0 0.0 0.00 0.00 0.00 10 1016.1
20260507040222 54 0.0 0.0 0.00 0.00 0.00 10 1015.9
20260507035322 54 0.0 0.0 0.00 0.00 0.00 10 1015.8
20260507034422 54 0.0 0.0 0.00 0.00 0.00 10 1015.9
20260507033522 54 0.0 0.0 0.00 0.00 0.00 10 1015.9
20260507032637 53 0.0 0.0 0.00 0.00 0.00 10 1015.9
20260507031723 54 0.0 0.0 0.00 0.00 0.00 10 1015.7
20260507030837 53 0.0 0.0 0.00 0.00 0.00 10 1015.8
20260507025923 54 0.0 0.0 0.00 0.00 0.00 10 1015.7
20260507025023 54 0.0 0.0 0.00 0.00 0.00 10 1015.7
20260507024138 54 0.0 0.0 0.00 0.00 0.00 10 1015.6
20260507023223 53 0.0 0.0 0.00 0.00 0.00 10 1015.6
20260507022322 54 0.0 0.0 0.00 0.00 0.00 10 1015.5
20260507021422 54 0.0 0.0 0.00 0.00 0.00 10 1015.5
20260507020522 55 0.0 0.0 0.00 0.00 0.00 10 1015.3
20260507015622 55 0.0 0.0 0.00 0.00 0.00 10 1015.2
20260507014722 56 0.0 0.0 0.00 0.00 0.00 10 1015.1
20260507013853 56 0.0 0.0 0.00 0.00 0.00 10 1015.1
20260507012923 56 0.0 0.0 0.00 0.00 0.00 10 1015.0
20260507012022 57 0.0 0.0 0.00 0.00 0.00 93 1014.9
20260507011122 58 0.0 0.0 0.00 0.00 0.00 92 1014.7
20260507010222 56 0.0 0.0 0.00 0.00 0.00 10 1015.0
20260507005322 55 0.0 0.0 0.00 0.00 0.00 10 1015.1
20260507004438 55 0.0 0.0 0.00 0.00 0.00 10 1015.0
20260507003523 54 0.0 0.0 0.00 0.00 0.00 10 1015.0
20260507002638 54 0.0 0.0 0.00 0.00 0.00 10 1014.9
20260507001737 54 0.0 0.0 0.00 0.00 0.00 10 1014.9
20260507000822 55 0.0 0.0 0.00 0.00 0.00 10 1014.8
20260506235923 54 0.0 0.0 0.00 0.00 0.00 10 1015.0
20260506235022 53 0.0 0.0 0.00 0.00 0.00 10 1015.2
20260506234122 53 0.0 0.0 0.00 0.00 0.00 10 1015.1
20260506233222 53 0.0 0.0 0.00 0.00 0.00 10 1015.2
20260506232353 54 0.0 0.0 0.00 0.00 0.00 10 1015.2
20260506231422 54 0.0 0.0 0.00 0.00 0.00 10 1015.2
20260506230522 54 0.0 0.0 0.00 0.00 0.00 10 1015.2
20260506225622 54 0.0 0.0 0.00 0.00 0.00 10 1015.2
20260506224723 54 0.0 0.0 0.00 0.00 0.00 10 1015.1
20260506223842 54 0.0 0.0 0.00 0.00 0.00 10 1015.1
20260506222922 55 0.0 0.0 0.00 0.00 0.00 10 1015.1
20260506222022 55 0.0 0.0 0.00 0.00 0.00 10 1015.2
20260506221122 55 0.0 0.0 0.00 0.00 0.00 10 1015.1
20260506220222 55 0.0 0.0 0.00 0.00 0.00 10 1015.1
20260506215322 55 0.0 0.0 0.00 0.00 0.00 10 1015.1
20260506214423 55 0.0 0.0 0.00 0.00 0.00 10 1015.2
20260506213522 56 0.0 0.0 0.00 0.00 0.00 10 1015.1
20260506212622 56 0.0 0.0 0.00 0.00 0.00 10 1015.0
20260506211722 56 0.0 0.0 0.00 0.00 0.00 10 1015.1
20260506210824 56 0.0 0.0 0.00 0.00 0.00 10 1015.0
20260506205923 56 0.0 0.0 0.00 0.00 0.00 10 1015.1
20260506205022 57 0.0 0.0 0.00 0.00 0.00 10 1015.1
20260506204122 57 0.0 0.0 0.00 0.00 0.00 10 1015.0
20260506203222 58 0.0 0.0 0.00 0.00 0.00 10 1014.8
20260506202322 58 0.0 0.0 0.00 0.00 0.00 10 1014.9
20260506201423 57 0.0 0.0 0.00 0.00 0.00 10 1014.9
20260506200537 57 0.0 0.0 0.00 0.00 0.00 10 1014.9
20260506195622 57 0.0 0.0 0.00 0.00 0.00 10 1014.9
20260506194722 57 0.0 0.0 0.00 0.00 0.00 10 1015.0
20260506193822 57 0.0 0.0 0.00 0.00 0.00 10 1014.8
20260506192937 57 0.0 0.0 0.00 0.00 0.00 10 1014.8
20260506192051 57 0.0 0.0 0.00 0.00 0.00 10 1014.8
20260506191122 57 0.0 0.0 0.00 0.00 0.00 10 1014.8
20260506190223 57 0.0 0.0 0.00 0.00 0.00 97 1014.7
20260506185322 58 0.0 0.0 0.00 0.00 0.00 91 1014.4
20260506183523 59 0.0 0.0 0.00 0.00 0.00 87 1014.2
20260506182622 59 0.0 0.0 0.00 0.00 0.00 81 1013.9
20260506181722 60 0.0 0.0 0.00 0.00 0.00 78 1013.7
20260506180822 60 0.0 0.0 0.00 0.00 0.00 77 1013.5
20260506175922 61 0.0 0.0 0.00 0.00 0.00 70 1013.3
20260506175023 62 0.0 0.0 0.00 0.00 0.00 66 1013.2
20260506174122 63 0.0 0.0 0.00 0.00 0.00 61 1013.1
20260506173237 64 0.0 0.0 0.00 0.00 0.00 59 1012.7
20260506172343 66 0.0 0.0 0.00 0.00 0.00 56 1012.4
20260506171422 67 0.0 0.0 0.00 0.00 0.00 54 1012.3
20260506170522 68 0.0 0.0 0.00 0.00 0.00 51 1012.1
20260506165623 69 0.0 0.0 0.00 0.00 0.00 49 1011.8
20260506164722 71 0.0 0.0 0.00 0.00 0.00 45 1011.6
20260506163822 72 0.0 0.0 0.00 0.00 0.00 42 1011.4
20260506162922 73 0.0 0.0 0.00 0.00 0.00 41 1011.3
20260506162022 73 0.0 0.0 0.00 0.00 0.00 38 1011.1
20260506161122 73 0.0 0.0 0.00 0.00 0.00 38 1011.0
20260506160222 74 0.0 0.0 0.00 0.00 0.00 39 1010.9
20260506155323 74 0.0 0.0 0.00 0.00 0.00 38 1010.9
20260506154422 75 0.0 0.0 0.00 0.00 0.00 38 1010.9
20260506153523 75 0.0 0.0 0.00 0.00 0.00 38 1010.9
20260506152622 75 0.0 0.0 0.00 0.00 0.00 37 1010.8
20260506151722 75 0.0 0.0 0.00 0.00 0.00 36 1010.9
20260506150822 77 0.0 0.0 0.00 0.00 0.00 36 1010.8
20260506145923 76 0.0 0.0 0.00 0.00 0.00 35 1011.0
20260506145022 77 0.0 0.0 0.00 0.00 0.00 34 1010.9
20260506144122 78 0.0 0.0 0.00 0.00 0.00 35 1010.7
20260506143222 77 0.0 0.0 0.00 0.00 0.00 36 1010.8
20260506142322 78 0.0 0.0 0.00 0.00 0.00 34 1010.7
20260506141423 78 0.0 0.0 0.00 0.00 0.00 34 1010.7
20260506140522 77 0.0 0.0 0.00 0.00 0.00 37 1010.9
20260506135622 77 0.0 0.0 0.00 0.00 0.00 34 1010.9
20260506134722 76 0.0 0.0 0.00 0.00 0.00 34 1011.2
20260506133822 75 0.0 0.0 0.00 0.00 0.00 35 1011.2
20260506132938 76 0.0 0.0 0.00 0.00 0.00 34 1011.2
20260506132022 76 0.0 0.0 0.00 0.00 0.00 33 1011.1
20260506131122 76 0.0 0.0 0.00 0.00 0.00 33 1011.2